Location: Franzen
(48.6167°N, 15.3833°E)
Time: 11:56:40
(UTC+00:00)

Lacrosse 5 rocket - Pass Details

Date: 22 April 2021
Orbit: 460 x 634 km, 57.0° (Epoch: 16 May)

Event Time Altitude Azimuth Distance (km) Brightness Sun altitude
Rises 20:42:22 0° 304° (NW) 2,755 6.1 -22.0°
Reaches altitude 10° 20:44:39 10° 311° (NW) 1,886 5.1 -22.2°
Maximum altitude 20:48:46 43° 24° (NNE) 843 2.4 -22.6°
Enters shadow 20:50:01 34° 65° (ENE) 997 2.5 -22.8°
